Weather Underground History

Daily Summary for January 23, 2019 Units:  Metric    English   Both
« Previous Day
Next Day »
Daily Weekly Monthly Yearly Custom
  Current: High: Low: Average:
Temperature: -1.6 °C -0.4 °C -3.0 °C -1.8 °C
Dew Point: -2.4 °C -0.6 °C -3.8 °C -2.7 °C
Humidity: 94% 100% 93% 94%
Wind Speed: 0.0km/h 4.8km/h 0.0km/h 0.2km/h
Wind Gust: 1.6km/h 6.4km/h - -
WindCalm - - WSW
Pressure: 1001.4 hPa 1001.4 hPa 996.0 hPa -
Precipitation: 0.0 mm      
Historical Graphs
 
 
Tabular Data for January 23, 2019
Time Temperature Dew Point Pressure Wind Wind Speed Wind Gust Humidity Rainfall Rate (Hourly) solar
00:04 -0.9 °C -1.8 °C 996.2 hPa WSW 4.8 km/h 6.4 km/h 94% 0.0 mm 0.00 W/m2
00:08 -0.9 °C -1.7 °C 996.2 hPa WSW 1.6 km/h 4.8 km/h 94% 0.0 mm 0.00 W/m2
00:14 -0.8 °C -1.6 °C 996.2 hPa WSW 3.2 km/h 6.4 km/h 94% 0.0 mm 0.00 W/m2
00:19 -0.7 °C -1.6 °C 996.2 hPa WSW 3.2 km/h 6.4 km/h 94% 0.0 mm 0.00 W/m2
00:24 -0.6 °C -1.4 °C 996.3 hPa WSW 4.8 km/h 4.8 km/h 94% 0.0 mm 0.00 W/m2
00:29 -0.6 °C -1.4 °C 996.3 hPa WSW 3.2 km/h 6.4 km/h 94% 0.0 mm 0.00 W/m2
00:34 -0.6 °C -1.4 °C 996.3 hPa Calm   6.4 km/h 94% 0.0 mm 0.00 W/m2
00:39 -0.5 °C -1.3 °C 996.2 hPa Calm   1.6 km/h 94% 0.0 mm 0.00 W/m2
00:44 -0.4 °C -1.3 °C 996.3 hPa Calm     94% 0.0 mm 0.00 W/m2
00:49 -0.4 °C -1.3 °C 996.2 hPa Calm     94% 0.0 mm 0.00 W/m2
00:54 -0.4 °C -1.2 °C 996.2 hPa Calm     94% 0.0 mm 0.00 W/m2
00:59 -0.4 °C -1.3 °C 996.1 hPa Calm     94% 0.0 mm 0.00 W/m2
01:04 -0.4 °C -1.3 °C 996.1 hPa Calm   3.2 km/h 94% 0.0 mm 0.00 W/m2
01:09 -0.5 °C -1.3 °C 996.0 hPa Calm     94% 0.0 mm 0.00 W/m2
01:14 -0.6 °C -1.4 °C 996.0 hPa Calm     94% 0.0 mm 0.00 W/m2
01:19 -0.6 °C -0.6 °C 996.1 hPa Calm     100% 0.0 mm 0.00 W/m2
01:24 -0.7 °C -1.5 °C 996.2 hPa Calm     94% 0.0 mm 0.00 W/m2
01:29 -0.7 °C -1.6 °C 996.2 hPa Calm     94% 0.0 mm 0.00 W/m2
01:34 -0.7 °C -1.5 °C 996.3 hPa Calm     94% 0.0 mm 0.00 W/m2
01:39 -0.7 °C -1.6 °C 996.4 hPa Calm     94% 0.0 mm 0.00 W/m2
01:44 -0.8 °C -1.6 °C 996.5 hPa Calm     94% 0.0 mm 0.00 W/m2
01:49 -0.8 °C -1.7 °C 996.4 hPa Calm     94% 0.0 mm 0.00 W/m2
01:54 -0.8 °C -1.7 °C 996.4 hPa Calm     94% 0.0 mm 0.00 W/m2
01:59 -0.9 °C -1.7 °C 996.5 hPa Calm     94% 0.0 mm 0.00 W/m2
02:05 -1.0 °C -1.8 °C 996.4 hPa Calm     94% 0.0 mm 0.00 W/m2
02:09 -1.1 °C -1.9 °C 996.4 hPa Calm     94% 0.0 mm 0.00 W/m2
02:14 -1.2 °C -2.2 °C 996.4 hPa Calm     93% 0.0 mm 0.00 W/m2
02:19 -1.2 °C -2.1 °C 996.4 hPa Calm     94% 0.0 mm 0.00 W/m2
02:24 -1.3 °C -2.1 °C 996.4 hPa Calm     94% 0.0 mm 0.00 W/m2
02:29 -1.3 °C -2.2 °C 996.4 hPa Calm     94% 0.0 mm 0.00 W/m2
02:34 -1.3 °C -2.2 °C 996.4 hPa Calm     94% 0.0 mm 0.00 W/m2
02:39 -1.4 °C -2.3 °C 996.4 hPa Calm     94% 0.0 mm 0.00 W/m2
02:44 -1.5 °C -2.5 °C 996.4 hPa Calm     93% 0.0 mm 0.00 W/m2
02:49 -1.6 °C -2.4 °C 996.4 hPa Calm     94% 0.0 mm 0.00 W/m2
02:54 -1.6 °C -2.4 °C 996.5 hPa Calm     94% 0.0 mm 0.00 W/m2
02:59 -1.6 °C -2.4 °C 996.5 hPa Calm     94% 0.0 mm 0.00 W/m2
03:05 -1.6 °C -2.4 °C 996.6 hPa Calm     94% 0.0 mm 0.00 W/m2
03:09 -1.6 °C -2.4 °C 996.7 hPa Calm     94% 0.0 mm 0.00 W/m2
03:14 -1.7 °C -2.5 °C 996.8 hPa Calm     94% 0.0 mm 0.00 W/m2
03:19 -1.7 °C -2.5 °C 996.9 hPa Calm     94% 0.0 mm 0.00 W/m2
03:24 -1.7 °C -2.6 °C 996.9 hPa Calm     94% 0.0 mm 0.00 W/m2
03:29 -1.7 °C -2.5 °C 997.0 hPa Calm   3.2 km/h 94% 0.0 mm 0.00 W/m2
03:34 -1.4 °C -2.3 °C 997.1 hPa Calm   6.4 km/h 94% 0.0 mm 0.00 W/m2
03:39 -1.3 °C -2.2 °C 997.2 hPa Calm     94% 0.0 mm 0.00 W/m2
03:44 -1.4 °C -2.2 °C 997.3 hPa Calm     94% 0.0 mm 0.00 W/m2
03:49 -1.4 °C -2.2 °C 997.2 hPa Calm     94% 0.0 mm 0.00 W/m2
03:54 -1.5 °C -2.3 °C 997.3 hPa Calm     94% 0.0 mm 0.00 W/m2
03:59 -1.6 °C -2.4 °C 997.3 hPa Calm     94% 0.0 mm 0.00 W/m2
04:04 -1.7 °C -2.5 °C 997.3 hPa Calm     94% 0.0 mm 0.00 W/m2
04:09 -1.7 °C -2.6 °C 997.3 hPa Calm     94% 0.0 mm 0.00 W/m2
04:14 -1.8 °C -2.6 °C 997.5 hPa Calm     94% 0.0 mm 0.00 W/m2
04:19 -1.8 °C -2.7 °C 997.5 hPa Calm     94% 0.0 mm 0.00 W/m2
04:24 -1.9 °C -2.8 °C 997.6 hPa Calm     94% 0.0 mm 0.00 W/m2
04:29 -2.0 °C -2.8 °C 997.6 hPa Calm     94% 0.0 mm 0.00 W/m2
04:34 -2.0 °C -2.8 °C 997.6 hPa Calm     94% 0.0 mm 0.00 W/m2
04:39 -2.1 °C -2.9 °C 997.7 hPa Calm     94% 0.0 mm 0.00 W/m2
04:44 -2.1 °C -2.9 °C 997.7 hPa Calm     94% 0.0 mm 0.00 W/m2
04:49 -2.1 °C -2.9 °C 997.8 hPa Calm     94% 0.0 mm 0.00 W/m2
04:54 -2.0 °C -2.8 °C 997.8 hPa Calm     94% 0.0 mm 0.00 W/m2
04:59 -2.0 °C -2.8 °C 997.8 hPa Calm     94% 0.0 mm 0.00 W/m2
05:04 -2.0 °C -2.8 °C 997.9 hPa Calm     94% 0.0 mm 0.00 W/m2
05:09 -2.1 °C -2.9 °C 997.9 hPa Calm     94% 0.0 mm 0.00 W/m2
05:14 -2.2 °C -3.1 °C 998.0 hPa Calm     94% 0.0 mm 0.00 W/m2
05:19 -2.2 °C -3.1 °C 998.0 hPa Calm     94% 0.0 mm 0.00 W/m2
05:24 -2.3 °C -3.1 °C 998.1 hPa Calm     94% 0.0 mm 0.00 W/m2
05:29 -2.3 °C -3.1 °C 998.2 hPa Calm     94% 0.0 mm 0.00 W/m2
05:34 -2.3 °C -3.1 °C 998.2 hPa Calm     94% 0.0 mm 0.00 W/m2
05:39 -2.3 °C -3.2 °C 998.2 hPa Calm     94% 0.0 mm 0.00 W/m2
05:44 -2.3 °C -3.2 °C 998.3 hPa Calm     94% 0.0 mm 0.00 W/m2
05:49 -2.4 °C -3.2 °C 998.3 hPa Calm     94% 0.0 mm 0.00 W/m2
05:54 -2.4 °C -3.2 °C 998.4 hPa Calm     94% 0.0 mm 0.00 W/m2
05:59 -2.4 °C -3.2 °C 998.5 hPa Calm     94% 0.0 mm 0.00 W/m2
06:04 -2.4 °C -3.3 °C 998.5 hPa Calm     94% 0.0 mm 0.00 W/m2
06:09 -2.4 °C -3.3 °C 998.6 hPa Calm     94% 0.0 mm 0.00 W/m2
06:14 -2.4 °C -3.3 °C 998.6 hPa Calm     94% 0.0 mm 0.00 W/m2
06:19 -2.4 °C -3.3 °C 998.6 hPa Calm     94% 0.0 mm 0.00 W/m2
06:24 -2.4 °C -3.3 °C 998.8 hPa Calm     94% 0.0 mm 0.00 W/m2
06:29 -2.5 °C -3.3 °C 998.9 hPa Calm     94% 0.0 mm 0.00 W/m2
06:34 -2.5 °C -3.3 °C 998.9 hPa Calm     94% 0.0 mm 0.00 W/m2
06:39 -2.5 °C -3.3 °C 998.9 hPa Calm     94% 0.0 mm 0.00 W/m2
06:44 -2.6 °C -3.4 °C 999.0 hPa Calm     94% 0.0 mm 0.00 W/m2
06:49 -2.6 °C -3.4 °C 999.0 hPa Calm     94% 0.0 mm 0.00 W/m2
06:54 -2.6 °C -3.4 °C 999.2 hPa Calm     94% 0.0 mm 0.00 W/m2
06:59 -2.6 °C -3.4 °C 999.3 hPa Calm     94% 0.0 mm 0.00 W/m2
07:04 -2.7 °C -3.5 °C 999.3 hPa Calm     94% 0.0 mm 0.00 W/m2
07:09 -2.7 °C -3.6 °C 999.4 hPa Calm     94% 0.0 mm 0.00 W/m2
07:14 -2.8 °C -3.6 °C 999.4 hPa Calm     94% 0.0 mm 0.00 W/m2
07:19 -2.8 °C -3.7 °C 999.4 hPa Calm     94% 0.0 mm 0.00 W/m2
07:24 -2.9 °C -3.7 °C 999.5 hPa Calm     94% 0.0 mm 0.00 W/m2
07:29 -2.9 °C -3.7 °C 999.5 hPa Calm     94% 0.0 mm 0.00 W/m2
07:34 -2.8 °C -3.7 °C 999.5 hPa Calm     94% 0.0 mm 0.00 W/m2
07:39 -2.8 °C -3.7 °C 999.6 hPa Calm     94% 0.0 mm 0.00 W/m2
07:44 -2.8 °C -3.7 °C 999.7 hPa Calm     94% 0.0 mm 0.00 W/m2
07:49 -2.8 °C -3.7 °C 999.7 hPa Calm     94% 0.0 mm 0.00 W/m2
07:54 -2.8 °C -3.7 °C 999.8 hPa Calm     94% 0.0 mm 0.00 W/m2
07:59 -2.8 °C -3.7 °C 999.8 hPa Calm     94% 0.0 mm 0.00 W/m2
08:04 -2.9 °C -3.7 °C 999.9 hPa Calm     94% 0.0 mm 0.00 W/m2
08:09 -2.9 °C -3.8 °C 1000.0 hPa Calm     94% 0.0 mm 5.00 W/m2
08:14 -2.9 °C -3.8 °C 1000.0 hPa Calm     94% 0.0 mm 7.00 W/m2
08:19 -3.0 °C -3.8 °C 1000.2 hPa Calm     94% 0.0 mm 9.00 W/m2
08:24 -2.9 °C -3.8 °C 1000.3 hPa Calm     94% 0.0 mm 11.00 W/m2
08:29 -2.9 °C -3.7 °C 1000.5 hPa Calm     94% 0.0 mm 11.00 W/m2
08:34 -2.8 °C -3.6 °C 1000.6 hPa Calm     94% 0.0 mm 12.00 W/m2
08:39 -2.7 °C -3.5 °C 1000.7 hPa Calm     94% 0.0 mm 26.00 W/m2
08:45 -2.7 °C -3.5 °C 1000.8 hPa Calm     94% 0.0 mm 35.00 W/m2
08:49 -2.6 °C -3.4 °C 1000.9 hPa Calm     94% 0.0 mm 40.00 W/m2
08:54 -2.4 °C -3.2 °C 1000.9 hPa Calm     94% 0.0 mm 47.00 W/m2
08:59 -2.3 °C -3.1 °C 1000.9 hPa Calm     94% 0.0 mm 53.00 W/m2
09:04 -2.2 °C -3.1 °C 1001.0 hPa Calm     94% 0.0 mm 60.00 W/m2
09:09 -2.1 °C -2.9 °C 1001.0 hPa Calm     94% 0.0 mm 72.00 W/m2
09:14 -1.9 °C -2.8 °C 1001.1 hPa Calm     94% 0.0 mm 90.00 W/m2
09:19 -1.8 °C -2.7 °C 1001.2 hPa Calm     94% 0.0 mm 120.00 W/m2
09:24 -1.7 °C -2.6 °C 1001.4 hPa Calm   4.8 km/h 94% 0.0 mm 130.00 W/m2
09:29 -1.6 °C -2.4 °C 1001.4 hPa Calm   1.6 km/h 94% 0.0 mm 146.00 W/m2
Compliments of Weather Underground - 2.75 mb